Regional Weather Roundup
Issued by NWS Cleveland, OH

Home | Current Version | Previous Version | Graphics & Text | Print | Product List | Glossary On
Versions: 1 2 3 4 5 6 7 8 9 10 11 12 13 14 15 16 17 18 19 20 21 22 23 24 25 26 27 28 29 30 31 32 33 34 35 36 37 38 39 40 41 42 43 44 45 46 47 48 49 50
000
ASUS41 KCLE 011000
RWRCLE
OHIO REGIONAL WEATHER ROUNDUP
NATIONAL WEATHER SERVICE WILMINGTON, OH
600 AM EDT SUN MAY 01 2016

NOTE: "FAIR" INDICATES FEW OR NO CLOUDS BELOW 12,000 FEET WITH NO
SIGNIFICANT WEATHER AND/OR OBSTRUCTIONS TO VISIBILITY.

OHZ001>008-015>018-024>027-034-035-043-044-011100-
   NORTHWEST OHIO

CITY           SKY/WX    TMP DP  RH WIND       PRES   REMARKS
DEFIANCE       CLOUDY    50  48  93 NE7       29.89R
FINDLAY        FOG       52  48  86 N5        29.87R VSB 1/2
TOLEDO EXPRESS CLOUDY    48  48 100 N6        29.89R FOG
TOLEDO EXEC    CLOUDY    49  47  93 N6        29.89R FOG
LIMA           CLOUDY    59  58  96 W6        29.86R FOG
$$

OHZ009>014-019>023-028>033-038-089-011100-
   NORTHEAST OHIO

CITY           SKY/WX    TMP DP  RH WIND       PRES   REMARKS
CLE-HOPKINS    FOG       56  54  93 CALM      29.88S VSB 3/4
CLE-LAKEFRONT  CLOUDY    52  50  93 CALM      29.85F FOG
CUY CO. ARPT   NOT AVBL
LORAIN-ELYRIA  CLOUDY    56  53  90 S5        29.86F
ASHTABULA      CLOUDY    51  51 100 CALM      29.89S
AKRON-CANTON   CLOUDY    58  56  93 SW8       29.88S FOG
WOOSTER        NOT AVBL
MANSFIELD      CLOUDY    58  58 100 SW6       29.87F FOG
YOUNGSTOWN     LGT RAIN  55  54  96 S5        29.89R FOG
$$

OHZ042-051>053-060>062-070>072-077>081-011100-
  SOUTHWEST OHIO

CITY           SKY/WX    TMP DP  RH WIND       PRES   REMARKS
CINC-COVINGTON LGT RAIN  62  61  96 S8        29.90R
CINC-LUNKEN    LGT RAIN  59  59 100 W3        29.92R FOG
HAMILTON       MOCLDY    60  60 100 W3        29.91R FOG
DAYTON         NOT AVBL
WRIGHT-PAT AFB NOT AVBL
DAYTON GENERAL CLOUDY    61  58  90 SW5       29.90R FOG
WILMINGTON     FAIR      59  59 100 SW7       29.90R
$$

OHZ036-037-039>041-045>050-054>059-063>069-073>076-082>088-011100-
  CENTRAL AND SOUTHEAST OHIO

CITY           SKY/WX    TMP DP  RH WIND       PRES   REMARKS
COLUMBUS       CLOUDY    58  58 100 S7        29.89R FOG
OSU AIRPORT    CLOUDY    59  58  96 S8        29.89R FOG
BOLTON FIELD   NOT AVBL
RICKENBACK AFB NOT AVBL
NEWARK         CLOUDY    62  58  86 S5        29.89R
MARION         FOG       58  57  97 S8        29.88S VSB 1/2
LANCASTER      MOCLDY    61  58  90 S5        29.91R
ZANESVILLE     CLOUDY    63  59  87 S7        29.91S
NEW PHILLY     LGT RAIN  60  58  92 CALM      29.90S
$$



USA.gov is the U.S. government's official web portal to all federal, state and local government web resources and services.